GW2067 Weather Reports


time (UTC)temp
C
wind
direction
speed
KPH
gust
KPH
rain 1hr
cm
rain 24hr
cm
rain mn
cm
humidity
%
barometer
mb
20260507105254 3 271 4.8 4.8 0.00 0.00 0.00 99 1007.5
20260507104752 3 327 0.0 0.0 0.00 0.00 0.00 99 1007.5
20260507104248 3 259 4.8 4.8 0.00 0.00 0.00 99 1007.2
20260507103744 3 287 1.6 1.6 0.00 0.00 0.00 99 1007.0
20260507103240 3 291 4.8 4.8 0.00 0.00 0.00 99 1007.2
20260507102737 3 312 4.8 8.0 0.00 0.00 0.00 99 1007.1
20260507102233 3 293 3.2 4.8 0.00 0.00 0.00 99 1007.4
20260507101730 3 279 3.2 4.8 0.00 0.00 0.00 99 1007.4
20260507101225 3 290 1.6 1.6 0.00 0.00 0.00 99 1007.3
20260507100722 3 330 4.8 4.8 0.00 0.00 0.00 99 1007.4
20260507100221 3 312 1.6 1.6 0.00 0.00 0.00 99 1007.5
20260507095718 3 301 1.6 1.6 0.00 0.00 0.00 99 1007.3
20260507095215 3 0 0.0 0.0 0.00 0.00 0.00 99 1007.4
20260507094712 3 302 4.8 8.0 0.00 0.00 0.00 99 1007.3
20260507094209 3 284 1.6 1.6 0.00 0.00 0.00 99 1007.2
20260507093705 3 5 0.0 0.0 0.00 0.00 0.00 99 1007.3
20260507093204 3 55 4.8 8.0 0.00 0.00 0.00 99 1007.4
20260507092701 3 35 0.0 0.0 0.00 0.00 0.00 99 1007.3
20260507092157 3 349 3.2 3.2 0.00 0.00 0.00 99 1007.4
20260507091654 3 353 0.0 0.0 0.00 0.00 0.00 99 1007.3
20260507091150 3 348 0.0 0.0 0.00 0.00 0.00 99 1007.4
20260507090645 3 2 0.0 0.0 0.00 0.00 0.00 99 1007.4
20260507090143 3 336 0.0 0.0 0.00 0.00 0.00 99 1007.1
20260507085640 3 33 0.0 0.0 0.00 0.00 0.00 99 1007.2
20260507085137 3 268 1.6 3.2 0.00 0.00 0.00 99 1007.2
20260507084633 3 328 1.6 3.2 0.00 0.00 0.00 99 1007.5
20260507084130 3 255 1.6 1.6 0.00 0.00 0.00 99 1007.2
20260507083627 3 5 1.6 1.6 0.00 0.00 0.00 99 1007.2
20260507083124 3 309 0.0 0.0 0.00 0.00 0.00 99 1007.1
20260507082619 3 343 0.0 0.0 0.00 0.00 0.00 99 1007.1
20260507082116 3 334 1.6 1.6 0.00 0.00 0.00 99 1007.3
20260507081613 3 330 0.0 1.6 0.00 0.00 0.00 99 1007.2
20260507081109 3 333 0.0 1.6 0.00 0.00 0.00 99 1007.3
20260507080606 3 336 1.6 1.6 0.00 0.00 0.00 99 1007.3
20260507075557 2 309 0.0 1.6 0.00 0.00 0.00 99 1007.3
20260507075054 2 304 1.6 1.6 0.00 0.00 0.00 99 1007.3
20260507074551 2 333 0.0 1.6 0.00 0.00 0.00 99 1007.2
20260507074049 2 320 1.6 1.6 0.00 0.00 0.00 99 1007.3
20260507073545 3 258 6.4 9.7 0.00 0.00 0.00 99 1007.4
20260507073041 2 249 6.4 9.7 0.00 0.00 0.00 99 1007.3
20260507072539 2 276 4.8 4.8 0.00 0.00 0.00 99 1007.3
20260507072036 2 233 8.0 11.3 0.00 0.00 0.00 99 1007.3
20260507071533 2 254 3.2 3.2 0.00 0.00 0.00 99 1007.1
20260507071030 2 279 3.2 3.2 0.00 0.00 0.00 99 1007.1
20260507070527 2 257 4.8 4.8 0.00 0.00 0.00 99 1007.2
20260507070024 2 290 6.4 8.0 0.00 0.00 0.00 99 1007.1
20260507065520 2 242 6.4 8.0 0.00 0.00 0.00 99 1007.3
20260507065018 2 305 1.6 1.6 0.00 0.00 0.00 99 1007.2
20260507064515 3 286 9.7 12.9 0.00 0.00 0.00 99 1007.1
20260507064014 3 258 9.7 11.3 0.00 0.00 0.00 99 1007.2
20260507063510 3 251 1.6 3.2 0.00 0.00 0.00 99 1007.3
20260507063008 3 236 8.0 9.7 0.00 0.00 0.00 99 1007.2
20260507062504 3 243 4.8 4.8 0.00 0.00 0.00 99 1007.2
20260507062002 3 275 4.8 4.8 0.00 0.00 0.00 99 1007.5
20260507061459 3 277 8.0 9.7 0.00 0.00 0.00 99 1007.7
20260507060958 3 326 3.2 4.8 0.00 0.00 0.00 99 1007.7
20260507060454 3 302 8.0 9.7 0.00 0.00 0.00 99 1007.7
20260507055951 3 274 4.8 4.8 0.00 0.00 0.00 99 1007.6
20260507055446 3 251 4.8 9.7 0.00 0.00 0.00 99 1007.7
20260507054943 3 327 6.4 8.0 0.00 0.00 0.00 99 1008.0
20260507054439 3 294 8.0 11.3 0.00 0.00 0.00 99 1007.7
20260507053936 3 315 4.8 4.8 0.00 0.00 0.00 99 1007.9
20260507053434 3 230 8.0 9.7 0.00 0.00 0.00 99 1008.0
20260507052932 3 265 8.0 9.7 0.00 0.00 0.00 99 1008.0
20260507052430 3 282 4.8 8.0 0.00 0.00 0.00 99 1008.1
20260507051927 3 12 8.0 11.3 0.00 0.00 0.00 99 1008.2
20260507051424 3 282 6.4 9.7 0.00 0.00 0.00 99 1008.0
20260507050921 3 277 4.8 4.8 0.00 0.00 0.00 99 1008.3
20260507050418 3 270 3.2 4.8 0.00 0.00 0.00 99 1008.3
20260507045915 3 341 4.8 8.0 0.00 0.00 0.00 99 1008.2
20260507045411 3 283 4.8 4.8 0.00 0.00 0.00 99 1008.3
20260507044908 3 270 8.0 9.7 0.00 0.00 0.00 99 1008.1
20260507044405 3 266 4.8 4.8 0.00 0.00 0.00 99 1008.3
20260507043901 3 254 6.4 8.0 0.00 0.00 0.00 99 1008.3
20260507043357 3 272 3.2 3.2 0.00 0.00 0.00 99 1008.4
20260507042854 3 288 8.0 11.3 0.00 0.00 0.00 99 1008.4
20260507042350 3 253 4.8 8.0 0.00 0.00 0.00 99 1008.5
20260507041846 3 257 4.8 4.8 0.00 0.00 0.00 99 1008.5
20260507041343 3 313 3.2 3.2 0.00 0.00 0.00 99 1008.5
20260507040841 3 328 1.6 3.2 0.00 0.00 0.00 99 1008.5
20260507040336 3 329 4.8 4.8 0.00 0.00 0.00 99 1008.6
20260507035832 3 336 0.0 0.0 0.00 1.88 1.88 99 1008.5
20260507035328 3 280 4.8 8.0 0.00 1.88 1.88 99 1008.5
20260507034826 3 281 3.2 4.8 0.00 1.88 1.88 99 1008.5
20260507034323 3 277 3.2 4.8 0.00 1.88 1.88 99 1008.8
20260507033821 3 312 1.6 1.6 0.00 1.88 1.88 99 1008.9
20260507033318 3 285 3.2 3.2 0.00 1.88 1.88 99 1009.0
20260507032815 3 311 1.6 1.6 0.00 1.88 1.88 99 1008.6
20260507032311 3 329 1.6 1.6 0.00 1.88 1.88 99 1008.9
20260507031808 3 321 0.0 0.0 0.00 1.88 1.88 99 1008.5
20260507031305 3 317 0.0 1.6 0.00 1.88 1.88 99 1008.8
20260507030801 3 336 1.6 3.2 0.00 1.88 1.88 99 1008.5
20260507030259 3 254 4.8 4.8 0.00 1.88 1.88 99 1008.5
20260507025756 3 288 3.2 3.2 0.00 1.88 1.88 99 1008.8
20260507025253 3 279 3.2 3.2 0.00 1.88 1.88 99 1008.9
20260507024751 3 254 3.2 4.8 0.00 1.88 1.88 99 1008.8
20260507024248 3 296 3.2 3.2 0.00 1.88 1.88 99 1008.8
20260507023743 3 321 1.6 1.6 0.00 1.88 1.88 99 1008.6
20260507023240 3 324 1.6 1.6 0.00 1.88 1.88 99 1008.5
20260507022738 3 344 0.0 1.6 0.00 1.88 1.88 99 1008.5
20260507022233 3 310 1.6 3.2 0.00 1.88 1.88 99 1008.8
20260507021730 3 305 1.6 1.6 0.00 1.88 1.88 99 1008.8
20260507021225 3 247 6.4 8.0 0.00 1.88 1.88 99 1008.6
20260507020724 3 301 3.2 3.2 0.00 1.88 1.88 99 1008.5
20260507020220 3 314 1.6 1.6 0.00 1.88 1.88 99 1008.6
20260507015718 3 340 0.0 0.0 0.00 1.88 1.88 99 1009.0
20260507015215 3 325 0.0 1.6 0.00 1.88 1.88 99 1008.8
20260507014711 3 333 1.6 1.6 0.00 1.88 1.88 99 1008.8
20260507014208 3 309 1.6 3.2 0.00 1.88 1.88 99 1008.8
20260507013705 3 336 0.0 0.0 0.00 1.88 1.88 99 1008.6
20260507013202 3 324 3.2 3.2 0.00 1.88 1.88 99 1009.1
20260507012700 3 256 3.2 3.2 0.00 1.88 1.88 99 1008.8
20260507012155 3 290 1.6 1.6 0.00 1.88 1.88 99 1008.8
20260507011653 3 336 1.6 3.2 0.00 1.88 1.88 99 1008.9
20260507011149 4 247 1.6 3.2 0.00 1.88 1.88 99 1008.8
20260507010644 4 297 1.6 1.6 0.00 1.88 1.88 99 1009.1
20260507010140 4 339 0.0 0.0 0.00 1.88 1.88 99 1008.9
20260507005637 4 333 0.0 0.0 0.00 1.88 1.88 99 1009.0
20260507005133 4 308 1.6 1.6 0.00 1.88 1.88 99 1009.1
20260507004630 4 322 1.6 1.6 0.00 1.88 1.88 99 1009.2
20260507004128 4 325 0.0 0.0 0.00 1.88 1.88 99 1009.1
20260507003624 4 338 0.0 0.0 0.00 1.88 1.88 99 1008.9
20260507003120 4 342 0.0 0.0 0.00 1.88 1.88 99 1008.8
20260507002616 4 336 0.0 0.0 0.13 1.88 1.88 99 1009.1
20260507002111 5 323 0.0 0.0 0.13 1.88 1.88 99 1009.1
20260507001608 5 323 0.0 1.6 0.13 1.88 1.88 99 1009.1
20260507001106 5 313 0.0 1.6 0.00 1.85 1.85 99 1009.1
20260507000602 5 328 0.0 0.0 0.00 1.85 1.85 99 1009.0
20260507000058 5 339 0.0 0.0 0.00 1.85 1.85 99 1008.9
20260506235555 5 332 0.0 0.0 0.00 1.85 1.85 99 1009.1
20260506235050 5 333 0.0 0.0 0.00 1.85 1.85 99 1009.2
20260506234548 5 9 0.0 1.6 0.00 1.85 1.85 99 1009.0
20260506234045 5 310 0.0 0.0 0.00 1.85 1.85 99 1008.6
20260506233542 5 7 0.0 0.0 0.00 1.85 1.85 99 1009.0
20260506233039 5 333 0.0 0.0 0.18 1.85 1.85 99 1009.0
20260506232535 5 320 0.0 0.0 0.18 1.85 1.85 99 1008.9
20260506232030 5 327 0.0 1.6 0.13 1.83 1.83 99 1009.0
20260506231528 5 300 1.6 1.6 0.13 1.83 1.83 99 1009.1
20260506231026 5 340 0.0 0.0 0.18 1.80 1.80 99 1008.8
20260506230522 5 321 0.0 1.6 0.18 1.80 1.80 99 1009.0
20260506230020 5 334 1.6 1.6 0.00 1.78 1.78 99 1009.0
20260506225516 5 310 1.6 1.6 0.00 1.78 1.78 99 1008.9
20260506225007 5 330 0.0 0.0 0.00 1.78 1.78 99 1009.0
20260506224504 5 300 3.2 3.2 0.00 1.78 1.78 99 1009.0
20260506224001 5 331 1.6 1.6 0.00 1.78 1.78 99 1008.9
20260506223456 5 277 4.8 4.8 0.00 1.78 1.78 99 1009.0
20260506222954 5 332 1.6 1.6 0.13 1.78 1.78 99 1009.0
20260506222450 5 283 4.8 4.8 0.13 1.78 1.78 99 1009.1
20260506221947 5 314 1.6 1.6 0.00 1.75 1.75 99 1009.2
20260506221444 5 288 3.2 3.2 0.18 1.75 1.75 99 1009.0
20260506220942 5 326 1.6 1.6 0.18 1.75 1.75 99 1009.0
20260506220437 6 312 1.6 1.6 0.00 1.73 1.73 99 1009.0
20260506215934 6 311 3.2 3.2 0.00 1.73 1.73 99 1009.0
20260506215430 6 310 1.6 1.6 0.00 1.73 1.73 99 1009.1
20260506214926 6 328 0.0 1.6 0.00 1.73 1.73 99 1009.1
20260506214423 6 326 0.0 0.0 0.00 1.73 1.73 99 1009.0
20260506213921 6 312 0.0 1.6 0.00 1.73 1.73 99 1009.0
20260506213418 6 298 1.6 1.6 0.00 1.73 1.73 99 1008.8
20260506212916 6 333 0.0 0.0 0.00 1.73 1.73 99 1009.0
20260506212411 6 327 0.0 0.0 0.00 1.73 1.73 99 1008.8
20260506211906 6 325 1.6 1.6 0.00 1.73 1.73 99 1008.8
20260506211403 6 302 0.0 0.0 0.00 1.73 1.73 99 1009.0
20260506210900 6 325 0.0 0.0 0.00 1.73 1.73 99 1009.0
20260506210356 6 324 0.0 0.0 0.00 1.73 1.73 99 1009.1
20260506205854 6 331 0.0 0.0 0.00 1.73 1.73 99 1008.9
20260506205349 6 341 0.0 0.0 0.00 1.73 1.73 99 1009.0
20260506204846 6 327 0.0 0.0 0.00 1.73 1.73 99 1009.2
20260506204344 6 325 0.0 0.0 0.00 1.73 1.73 99 1009.0
20260506203841 6 320 0.0 0.0 0.00 1.73 1.73 99 1009.1
20260506203338 6 341 0.0 0.0 0.00 1.73 1.73 99 1008.9
20260506202835 6 340 0.0 0.0 0.00 1.73 1.73 99 1009.0
20260506202332 6 346 0.0 1.6 0.00 1.73 1.73 99 1008.8
20260506201829 6 311 1.6 1.6 0.13 1.73 1.73 99 1008.9
20260506201326 6 324 0.0 0.0 0.13 1.73 1.73 99 1008.9
20260506200822 6 301 0.0 1.6 0.13 1.73 1.73 99 1009.1
20260506200319 6 341 0.0 1.6 0.00 1.70 1.70 99 1009.2
20260506195815 6 345 0.0 0.0 0.18 1.70 1.70 99 1009.1
20260506195313 6 348 0.0 0.0 0.18 1.70 1.70 99 1009.2
20260506194809 5 0 0.0 0.0 0.18 1.70 1.70 99 1009.2
20260506194306 5 342 0.0 0.0 0.00 1.68 1.68 99 1009.3
20260506193804 6 349 0.0 0.0 0.13 1.68 1.68 99 1009.4
20260506193300 6 347 0.0 0.0 0.13 1.68 1.68 99 1009.6
20260506192756 6 16 0.0 0.0 0.18 1.65 1.65 99 1009.6
20260506192253 5 343 0.0 0.0 0.18 1.65 1.65 99 1010.0
20260506191750 6 5 0.0 0.0 0.18 1.63 1.63 99 1009.8
20260506191246 6 333 0.0 0.0 0.30 1.63 1.63 99 1009.9
20260506190744 6 34 0.0 0.0 0.13 1.60 1.60 99 1009.7
20260506190240 6 345 0.0 0.0 0.30 1.60 1.60 99 1009.9
20260506185737 6 338 0.0 0.0 0.18 1.57 1.57 99 1009.9
20260506185234 5 334 0.0 0.0 0.13 1.55 1.55 99 1010.0
20260506184731 5 17 1.6 1.6 0.13 1.55 1.55 99 1009.7
20260506184228 5 339 0.0 0.0 0.18 1.52 1.52 99 1010.1
20260506183725 6 333 0.0 0.0 0.18 1.52 1.52 99 1009.8
20260506183221 5 340 0.0 0.0 0.13 1.50 1.50 99 1009.9
20260506182718 5 346 0.0 0.0 0.30 1.50 1.50 99 1009.8
20260506182215 5 325 0.0 0.0 0.18 1.47 1.47 99 1009.8
20260506181713 5 332 0.0 0.0 0.13 1.45 1.45 99 1010.0
20260506181211 5 1 0.0 0.0 0.13 1.45 1.45 99 1009.9
20260506180707 5 358 0.0 0.0 0.18 1.42 1.42 99 1010.0
20260506180203 5 13 0.0 0.0 0.30 1.42 1.42 99 1010.1
20260506175700 5 349 0.0 0.0 0.13 1.40 1.40 99 1010.2
20260506175156 5 336 0.0 0.0 0.30 1.40 1.40 99 1010.4
20260506174654 5 358 0.0 0.0 0.36 1.37 1.37 99 1010.3
20260506174151 6 316 0.0 0.0 0.30 1.35 1.35 99 1010.3
20260506173649 5 335 0.0 0.0 0.13 1.32 1.32 99 1010.3
20260506173145 5 331 0.0 0.0 0.18 1.30 1.30 99 1010.4
20260506172642 5 332 0.0 0.0 0.18 1.30 1.30 99 1010.6
20260506172139 5 308 1.6 1.6 0.13 1.27 1.27 99 1010.4
20260506171631 5 341 0.0 0.0 0.13 1.27 1.27 99 1010.4
20260506171128 5 0 0.0 0.0 0.00 1.24 1.24 99 1010.5
20260506170625 5 338 0.0 0.0 0.18 1.24 1.24 99 1010.7
20260506170117 5 358 0.0 0.0 0.18 1.24 1.24 99 1010.8
20260506165615 5 4 0.0 0.0 0.13 1.22 1.22 99 1011.0
20260506165111 5 333 0.0 0.0 0.30 1.22 1.22 99 1011.2
20260506164609 5 306 0.0 0.0 0.18 1.19 1.19 99 1011.4
20260506164106 5 338 0.0 0.0 0.13 1.17 1.17 99 1011.3
20260506163601 5 294 3.2 3.2 0.30 1.17 1.17 99 1011.4
20260506163057 5 328 1.6 1.6 0.18 1.14 1.14 99 1011.2
20260506162553 5 324 0.0 1.6 0.13 1.12 1.12 99 1011.3
20260506162046 5 288 1.6 1.6 0.30 1.12 1.12 99 1011.4
20260506161543 5 318 0.0 1.6 0.18 1.09 1.09 99 1011.5
20260506161039 5 319 1.6 1.6 0.13 1.07 1.07 99 1011.5
20260506160537 5 334 0.0 0.0 0.13 1.07 1.07 99 1011.6
20260506160034 5 327 1.6 1.6 0.18 1.04 1.04 99 1011.4
20260506155533 5 343 0.0 1.6 0.36 1.04 1.04 99 1011.5
20260506153709 5 338 3.2 3.2 0.13 0.99 0.99 99 1011.4
20260506153207 5 338 1.6 1.6 0.18 0.97 0.97 99 1011.5
20260506152704 5 316 3.2 3.2 0.30 0.97 0.97 99 1011.6
20260506152201 5 321 1.6 1.6 0.30 0.94 0.94 99 1011.5
20260506151700 5 266 3.2 3.2 0.18 0.91 0.91 99 1011.7
20260506151156 5 335 0.0 0.0 0.30 0.89 0.89 99 1011.4
20260506150653 5 338 1.6 1.6 0.18 0.86 0.86 99 1011.5
20260506150150 5 324 3.2 3.2 0.30 0.86 0.86 99 1011.9
20260506145647 5 292 1.6 1.6 0.30 0.84 0.84 99 1012.1
20260506145143 5 286 1.6 1.6 0.30 0.81 0.81 99 1011.9
20260506144641 5 273 1.6 1.6 0.30 0.79 0.79 99 1012.0
20260506144137 5 230 1.6 3.2 0.30 0.76 0.76 99 1012.2
20260506143635 5 294 1.6 1.6 0.30 0.74 0.74 99 1012.2
20260506143133 5 293 0.0 1.6 0.18 0.71 0.71 99 1012.3
20260506142632 5 312 0.0 1.6 0.18 0.69 0.69 99 1012.4
20260506142129 5 307 1.6 3.2 0.30 0.69 0.69 99 1012.2
20260506141626 5 278 0.0 1.6 0.30 0.66 0.66 99 1012.1
20260506141125 5 316 1.6 1.6 0.30 0.64 0.64 99 1011.7
20260506140622 5 316 1.6 1.6 0.30 0.61 0.61 99 1011.8
20260506140119 5 332 0.0 0.0 0.30 0.58 0.58 99 1011.9
20260506135615 5 207 4.8 4.8 0.13 0.56 0.56 99 1012.0
20260506135112 5 271 3.2 3.2 0.18 0.53 0.53 99 1011.9
20260506134608 5 300 3.2 3.2 0.30 0.53 0.53 99 1011.7
20260506134104 5 310 1.6 3.2 0.30 0.51 0.51 99 1011.8
20260506133602 5 254 3.2 3.2 0.18 0.48 0.48 99 1011.7
20260506133059 5 341 0.0 0.0 0.30 0.48 0.48 99 1011.9
20260506132556 5 308 1.6 1.6 0.13 0.46 0.46 99 1011.7
20260506132053 5 258 3.2 4.8 0.18 0.43 0.43 99 1011.7
20260506131550 5 282 4.8 4.8 0.18 0.43 0.43 99 1011.7
20260506131046 5 267 1.6 1.6 0.13 0.41 0.41 99 1011.8
20260506130543 5 300 4.8 4.8 0.13 0.41 0.41 99 1012.0
20260506130041 5 269 4.8 4.8 0.18 0.38 0.38 99 1012.2
20260506125539 5 285 3.2 3.2 0.18 0.38 0.38 99 1012.1
20260506125037 5 270 3.2 4.8 0.18 0.38 0.38 99 1011.9
20260506124534 5 317 1.6 3.2 0.18 0.36 0.36 99 1011.7
20260506124032 5 290 3.2 4.8 0.30 0.36 0.36 99 1011.6
20260506123529 6 301 3.2 3.2 0.13 0.33 0.33 99 1011.8
20260506123027 6 288 3.2 3.2 0.18 0.30 0.30 99 1011.9
20260506122524 6 315 3.2 3.2 0.18 0.30 0.30 99 1012.0
20260506122022 6 340 4.8 9.7 0.00 0.28 0.28 99 1012.2
20260506121520 6 322 3.2 3.2 0.13 0.28 0.28 99 1012.0
20260506121015 6 309 1.6 1.6 0.13 0.28 0.28 99 1012.0
20260506120514 6 277 4.8 8.0 0.00 0.25 0.25 99 1012.0
20260506120011 6 259 4.8 9.7 0.18 0.25 0.25 99 1012.1
20260506115509 6 336 1.6 1.6 0.18 0.25 0.25 99 1012.1
20260506115007 6 167 3.2 3.2 0.18 0.25 0.25 99 1012.0
20260506114504 6 320 1.6 1.6 0.00 0.23 0.23 99 1011.8
20260506114002 6 341 0.0 1.6 0.00 0.23 0.23 99 1012.1
20260506113459 6 337 1.6 3.2 0.00 0.23 0.23 99 1012.0
20260506112956 6 258 3.2 3.2 0.00 0.23 0.23 99 1011.9
20260506112453 6 287 4.8 4.8 0.00 0.23 0.23 99 1011.6
20260506111950 6 298 4.8 4.8 0.00 0.23 0.23 99 1011.5
20260506111449 6 295 4.8 4.8 0.00 0.23 0.23 99 1011.6
20260506110945 6 337 0.0 1.6 0.00 0.23 0.23 99 1011.6
20260506110443 6 341 0.0 0.0 0.00 0.23 0.23 99 1011.6
20260506105939 6 24 0.0 0.0 0.00 0.23 0.23 99 1011.5